Weather History for Puyallup, WA

Change the Weather History Date:

Monday, April 28, 2014

  Actual Average (KTCM) Record (KTCM)
Temperature  
Mean Temperature 50 °F -  
Max Temperature 60 °F 58 °F 77 °F (1968)
Min Temperature 39 °F 38 °F 30 °F (1955)
Degree Days  
Heating Degree Days 16    
Moisture  
Dew Point 39 °F    
Average Humidity 70    
Maximum Humidity 100    
Minimum Humidity 39    
Precipitation  
Precipitation 0.02 in - - ()
Sea Level Pressure  
Sea Level Pressure 30.29 in    
Wind  
Wind Speed 2 mph (SW)    
Max Wind Speed 7 mph    
Max Gust Speed -    
Visibility 10 miles    
Events Rain    
Averages and records for this station are not official NWS values.
T = Trace of Precipitation, MM = Missing Value Source: NWS Daily Summary

Daily Weather History Graph

Daily Weather History Graph

Search for Another Location

Airport:

Trip Planner

Search our weather history database for the weather conditions in past years. The results will help you decide how hot, cold, wet, or windy it might be!

Date:

Astronomy

Apr. 28, 2014 Rise Set
Actual Time 5:58 AM PDT 8:16 PM PDT
Civil Twilight 5:24 AM PDT 8:49 PM PDT
Nautical Twilight 4:42 AM PDT 9:31 PM PDT
Astronomical Twilight 3:55 AM PDT 10:19 PM PDT
Moon 5:43 AM PDT (4/28) 7:58 PM PDT (4/28)
Length of Visible Light 15h 25m
Length of Day
14h 18m
Waning Crescent, 0% of the Moon is Illuminated
Apr 28
Waning Crescent
Apr 28
New
May 6
First Quarter
May 14
Full
May 21
Last Quarter

Hourly Weather History & Observations

Time (PDT) Temp. Windchill Dew Point Humidity Pressure Visibility Wind Dir Wind Speed Gust Speed Precip Events Conditions
12:15 AM 42.8 °F 40.1 °F 39.2 °F 87% 30.14 in 10.0 mi SSW 4.6 mph - N/A   Unknown
12:35 AM 42.8 °F - 39.2 °F 87% 30.15 in 10.0 mi Calm Calm - N/A   Unknown
12:55 AM 42.8 °F 41.1 °F 39.2 °F 87% 30.16 in 10.0 mi South 3.5 mph - N/A   Unknown
1:15 AM 42.8 °F 41.1 °F 39.2 °F 87% 30.16 in 10.0 mi South 3.5 mph - N/A   Unknown
1:35 AM 42.8 °F - 39.2 °F 87% 30.17 in 10.0 mi Calm Calm - N/A   Unknown
1:55 AM 41.0 °F - 41.0 °F 100% 30.17 in 10.0 mi Calm Calm - N/A   Unknown
2:15 AM 42.8 °F 41.1 °F 41.0 °F 93% 30.19 in 6.0 mi West 3.5 mph - 0.01 in Rain Rain
2:35 AM 41.0 °F - 41.0 °F 100% 30.19 in 10.0 mi Calm Calm - 0.02 in   Unknown
2:55 AM 41.0 °F - 39.2 °F 93% 30.20 in 10.0 mi Calm Calm - 0.02 in   Unknown
3:15 AM 39.2 °F - 39.2 °F 100% 30.20 in 10.0 mi Calm Calm - N/A   Unknown
3:35 AM 41.0 °F 39.0 °F 39.2 °F 93% 30.21 in 10.0 mi SSW 3.5 mph - N/A   Unknown
3:55 AM 41.0 °F - 39.2 °F 93% 30.22 in 10.0 mi Calm Calm - N/A   Unknown
4:15 AM 41.0 °F - 39.2 °F 93% 30.23 in 10.0 mi Calm Calm - N/A   Unknown
4:35 AM 41.0 °F 39.0 °F 39.2 °F 93% 30.23 in 10.0 mi South 3.5 mph - N/A   Unknown
4:55 AM 41.0 °F - 41.0 °F 100% 30.24 in 8.0 mi Calm Calm - N/A Rain Light Rain
5:15 AM 41.0 °F - 39.2 °F 93% 30.24 in 10.0 mi Calm Calm - N/A   Unknown
5:35 AM 41.0 °F - 39.2 °F 93% 30.25 in 10.0 mi Calm Calm - N/A   Unknown
5:55 AM 41.0 °F - 39.2 °F 93% 30.26 in 10.0 mi Calm Calm - N/A   Unknown
6:15 AM 39.2 °F - 39.2 °F 100% 30.26 in 10.0 mi Calm Calm - N/A   Unknown
6:55 AM 39.2 °F - 39.2 °F 100% 30.27 in 10.0 mi Calm Calm - N/A   Unknown
7:15 AM 39.2 °F - 39.2 °F 100% 30.28 in 10.0 mi Calm Calm - N/A   Unknown
7:35 AM 42.8 °F - 39.2 °F 87% 30.29 in 10.0 mi Calm Calm - N/A   Unknown
7:55 AM 44.6 °F 43.1 °F 39.2 °F 81% 30.29 in 10.0 mi South 3.5 mph - N/A   Unknown
8:15 AM 46.4 °F 44.3 °F 39.2 °F 76% 30.30 in 10.0 mi South 4.6 mph - N/A   Unknown
8:35 AM 48.2 °F - 39.2 °F 71% 30.30 in 10.0 mi South 4.6 mph - N/A   Unknown
8:55 AM 48.2 °F - 39.2 °F 71% 30.31 in 10.0 mi SW 3.5 mph - N/A   Unknown
9:15 AM 50.0 °F - 39.2 °F 66% 30.32 in 10.0 mi South 3.5 mph - N/A   Unknown
9:35 AM 50.0 °F - 39.2 °F 66% 30.32 in 10.0 mi WSW 5.8 mph - N/A   Unknown
9:55 AM 51.8 °F - 39.2 °F 62% 30.32 in 10.0 mi South 4.6 mph - N/A   Unknown
10:15 AM 50.0 °F - 39.2 °F 66% 30.33 in 10.0 mi Calm Calm - N/A   Unknown
10:35 AM 50.0 °F - 37.4 °F 62% 30.33 in 10.0 mi Calm Calm - N/A   Unknown
10:55 AM 50.0 °F - 37.4 °F 62% 30.33 in 10.0 mi Calm Calm - N/A   Unknown
11:15 AM 50.0 °F - 37.4 °F 62% 30.33 in 10.0 mi Calm Calm - N/A   Unknown
11:35 AM 51.8 °F - 37.4 °F 58% 30.34 in 10.0 mi Calm Calm - N/A   Unknown
11:55 AM 53.6 °F - 37.4 °F 54% 30.34 in 10.0 mi Calm Calm - N/A   Unknown
12:15 PM 55.4 °F - 35.6 °F 47% 30.34 in 10.0 mi Calm Calm - N/A   Unknown
12:35 PM 55.4 °F - 39.2 °F 54% 30.34 in 10.0 mi West 5.8 mph - N/A   Unknown
12:55 PM 55.4 °F - 37.4 °F 51% 30.34 in 10.0 mi Calm Calm - N/A   Unknown
1:35 PM 57.2 °F - 35.6 °F 44% 30.34 in 10.0 mi SSW 4.6 mph - N/A   Unknown
1:55 PM 57.2 °F - 33.8 °F 41% 30.33 in 10.0 mi NW 3.5 mph - N/A   Unknown
2:15 PM 59.0 °F - 35.6 °F 42% 30.34 in 10.0 mi NW 3.5 mph - N/A   Unknown
2:35 PM 57.2 °F - 35.6 °F 44% 30.33 in 10.0 mi Calm Calm - N/A   Unknown
2:55 PM 59.0 °F - 35.6 °F 42% 30.33 in 10.0 mi Calm Calm - N/A   Unknown
3:15 PM 57.2 °F - 35.6 °F 44% 30.33 in 10.0 mi Calm Calm - N/A   Unknown
3:35 PM 59.0 °F - 37.4 °F 45% 30.32 in 10.0 mi North 4.6 mph - N/A   Unknown
3:55 PM 60.8 °F - 35.6 °F 39% 30.32 in 10.0 mi ESE 6.9 mph - N/A   Unknown
4:15 PM 60.8 °F - 35.6 °F 39% 30.32 in 10.0 mi NNW 4.6 mph - N/A   Unknown
4:35 PM 59.0 °F - 33.8 °F 39% 30.32 in 10.0 mi Calm Calm - N/A   Unknown
4:55 PM 59.0 °F - 37.4 °F 45% 30.32 in 10.0 mi Calm Calm - N/A   Unknown
5:15 PM 59.0 °F - 37.4 °F 45% 30.32 in 10.0 mi Calm Calm - N/A   Unknown
5:35 PM 57.2 °F - 35.6 °F 44% 30.32 in 10.0 mi Calm Calm - N/A   Unknown
5:55 PM 57.2 °F - 37.4 °F 48% 30.32 in 10.0 mi Calm Calm - N/A   Unknown
6:15 PM 59.0 °F - 35.6 °F 42% 30.33 in 10.0 mi Calm Calm - N/A   Unknown
6:35 PM 59.0 °F - 35.6 °F 42% 30.33 in 10.0 mi Calm Calm - N/A   Unknown
6:55 PM 57.2 °F - 37.4 °F 48% 30.33 in 10.0 mi North 3.5 mph - N/A   Unknown
7:15 PM 57.2 °F - 39.2 °F 51% 30.33 in 10.0 mi Calm Calm - N/A   Unknown
7:35 PM 55.4 °F - 37.4 °F 51% 30.33 in 10.0 mi Calm Calm - N/A   Unknown
7:55 PM 53.6 °F - 39.2 °F 58% 30.33 in 10.0 mi Calm Calm - N/A   Unknown
8:15 PM 51.8 °F - 39.2 °F 62% 30.33 in 10.0 mi Calm Calm - N/A   Unknown
8:35 PM 50.0 °F - 39.2 °F 66% 30.33 in 10.0 mi Calm Calm - N/A   Unknown
8:55 PM 50.0 °F - 41.0 °F 71% 30.33 in 10.0 mi Calm Calm - N/A   Unknown
9:15 PM 48.2 °F - 41.0 °F 76% 30.34 in 10.0 mi Calm Calm - N/A   Unknown
9:35 PM 48.2 °F - 41.0 °F 76% 30.35 in 10.0 mi Calm Calm - N/A   Unknown
9:55 PM 48.2 °F - 41.0 °F 76% 30.35 in 10.0 mi Calm Calm - N/A   Unknown
10:15 PM 48.2 °F - 42.8 °F 82% 30.35 in 10.0 mi Calm Calm - N/A   Unknown
10:35 PM 46.4 °F - 42.8 °F 87% 30.36 in 10.0 mi Calm Calm - N/A   Unknown
10:55 PM 46.4 °F - 42.8 °F 87% 30.36 in 10.0 mi Calm Calm - N/A   Unknown
11:15 PM 44.6 °F - 42.8 °F 93% 30.36 in 10.0 mi Calm Calm - N/A   Unknown
11:35 PM 44.6 °F - 41.0 °F 87% 30.36 in 10.0 mi Calm Calm - N/A   Unknown
11:55 PM 44.6 °F - 42.8 °F 93% 30.37 in 10.0 mi Calm Calm - N/A   Unknown